Regional Weather Roundup
Issued by NWS Northern Indiana

Home | Current Version | Previous Version | Text Only | Print | Product List | Glossary Off
Versions: 1 2 3 4 5 6 7 8 9 10 11 12 13 14 15 16 17 18 19 20 21 22 23 24 25 26 27 28 29 30 31 32 33 34 35 36 37 38 39 40 41 42 43 44 45 46 47 48 49 50

000
ASUS43 KIWX 190600
RWRIWX

KIWX WEATHER ROUNDUP
NATIONAL WEATHER SERVICE NORTHERN INDIANA
200 AM EDT FRI SEP 19 2014

NOTE: "FAIR" INDICATES FEW OR NO CLOUDS BELOW 12,000 FEET WITH NO
SIGNIFICANT WEATHER AND/OR OBSTRUCTIONS TO VISIBILITY.

* THESE STATIONS ARE NOT UNDER NWS QUALITY CONTROL. THEY ALSO MAY NOT
  REPORT WEATHER SUCH AS PRECIPITATION OR FOG.

INZ001>027-190700-
NORTHERN INDIANA

CITY           SKY/WX    TMP DP  RH WIND       PRES   REMARKS
VALPARAISO     CLEAR     52  49  89 E6        30.18R
6HR MIN TEMP:  51; 6HR MAX TEMP:  60;

SOUTH BEND     CLEAR     56  50  80 NE3       30.20R
6HR MIN TEMP:  56; 6HR MAX TEMP:  66;

GOSHEN         CLEAR     54  50  86 E7        30.19R
6HR MIN TEMP:  53; 6HR MAX TEMP:  62;

WARSAW*        CLEAR     52  50  93 E7        30.19R
ANGOLA*        CLEAR     52  50  93 E5        30.21R
FORT WAYNE     PTCLDY    52  49  89 E5        30.20R
6HR MIN TEMP:  51; 6HR MAX TEMP:  62;

PERU/GRISSOM   CLEAR     55  53  95 E5        30.17R
6HR MIN TEMP:  53; 6HR MAX TEMP:  62;


$$
INZ028>050-190700-
CENTRAL INDIANA

CITY           SKY/WX    TMP DP  RH WIND       PRES   REMARKS
LAFAYETTE      CLEAR     52  49  89 CALM      30.15R
6HR MIN TEMP:  50; 6HR MAX TEMP:  64;

KOKOMO*        CLEAR     52  46  82 E7        30.17R
6HR MIN TEMP:  52; 6HR MAX TEMP:  63;

MUNCIE*        CLEAR     51  47  86 E5        30.17S
6HR MIN TEMP:  50; 6HR MAX TEMP:  61;

INDIANAPOLIS   CLEAR     57  48  72 NE8       30.13S
6HR MIN TEMP:  57; 6HR MAX TEMP:  67;


$$
MIZ043>046-050>051-056>058-064>065-071>073-077>080-190700-
SOUTHWEST LOWER MICHIGAN

CITY           SKY/WX    TMP DP  RH WIND       PRES   REMARKS
BATTLE CREEK   CLEAR     52  48  86 E5        30.22R
6HR MIN TEMP:  51; 6HR MAX TEMP:  61;

BENTON HARBOR  CLEAR     51  49  92 E5        30.19R
6HR MIN TEMP:  50; 6HR MAX TEMP:  60;

COLDWATER*     CLEAR     52  51  93 E5        30.21R FOG
6HR MIN TEMP:  52; 6HR MAX TEMP:  60;

HILLSDALE*     CLEAR     51  51 100 E3        30.22R FOG
HOLLAND        CLEAR     51  48  89 E8        30.21S
6HR MIN TEMP:  50; 6HR MAX TEMP:  62;

GRAND RAPIDS   CLEAR     48  46  93 E7        30.23R
6HR MIN TEMP:  48; 6HR MAX TEMP:  56;

KALAMAZOO      CLEAR     49  47  93 CALM      30.22R FOG
6HR MIN TEMP:  48; 6HR MAX TEMP:  63;

STURGIS*       CLEAR     52  50  93 CALM      30.20R
THREE RIVERS*  FAIR      52  49  92 CALM      30.21R
6HR MIN TEMP:  51; 6HR MAX TEMP:  60;


$$
OHZ001>008-015>018-024>025-190700-
NORTHWEST OHIO

CITY           SKY/WX    TMP DP  RH WIND       PRES   REMARKS
DEFIANCE       CLEAR     52  49  89 NE3       30.21R FOG
6HR MIN TEMP:  52; 6HR MAX TEMP:  64;

FINDLAY        CLEAR     54  51  90 E5        30.20R
6HR MIN TEMP:  54; 6HR MAX TEMP:  64;

TOLEDO EXPRESS MOCLDY    53  49  86 NE5       30.22R
6HR MIN TEMP:  52; 6HR MAX TEMP:  60;

TOLEDO METCALF PTCLDY    55  48  77 NE3       30.23R
6HR MIN TEMP:  55; 6HR MAX TEMP:  62;

LIMA           CLEAR     50  48  93 E8        30.19S
6HR MIN TEMP:  50; 6HR MAX TEMP:  60;


$$
&&



USA.gov is the U.S. government's official web portal to all federal, state and local government web resources and services.